Content
SEND FEEDBACK

Daily
Averages
Monthly
Summary
Canada

MONTREAL, QUEBEC


Home > North America > Canada > Quebec
Elevation: 35 meters     Latitude: 45 28N     Longitude: 073 45W

WEATHER
 
SELECT A DAY
Number of Records: 198,066;   Date Range: 1/1/95 - 7/23/14
 
SHARE

PRINT THIS DATA

[ ← Previous Day ]
WEATHER ALMANAC - 5 OCTOBER, 2013
[ Next Day → ]
[ °F ]   °C
Weather ElementAverageHighLow
Temperature14.2 °C17 °C (2:00 pm)11.7 °C (8:00 am)
Dewpoint4.4 °C8 °C (2:00 am)2 °C (5:00 am)
Humidity51.5 %72 % (2:00 am)30 % (2:00 pm)
Barometer1021 hPa1022.4 hPa (11:00 pm)1020 hPa (1:00 am)
Wind Speed12.7 km/h18.5 km/h (5:00 am)
Weather ElementAverage
Visibility35.9 km
Wind DirectionENE (54.6 °)

Weather ElementTotal
Precipitation---
Heating Degree Days4 (Base 18.3)
Growing Degree Days4.3 (Base 10)
Averaged from 26 records on 5 October, 2013
WEATHER CONDITIONS BREAKOUT
WIND DIRECTION BREAKOUT
WEATHER BY HOUR - 5 OCTOBER, 2013
[ °F ]   °C
Local TimeTemperatureDewpointHumidityBarometerVisibilityWind DirectionWind SpeedGust SpeedPrecipitationEventsConditions
1:00 AM13 °C6 °C63 %1020 hPa24.1 kmNorth (360°)7.4 km/hMostly Cloudy
2:00 AM13.3 °C7.8 °C59 %1020.7 hPa24.1 kmNorth (10°)13 km/hOvercast
2:00 AM13 °C8 °C72 %1020.7 hPa24.1 kmNorth (10°)13 km/hOvercast
3:00 AM13 °C8 °C72 %1020.3 hPa24.1 kmNNE (30°)11.1 km/hOvercast
4:00 AM13 °C5 °C58 %1020.3 hPa24.1 kmNE (40°)13 km/hRainLight Rain Showers
5:00 AM13 °C2 °C47 %1020.7 hPa24.1 kmNE (40°)18.5 km/hOvercast
6:00 AM12 °C3 °C54 %1020.3 hPa24.1 kmNE (50°)16.7 km/hOvercast
7:00 AM12 °C5 °C62 %1021 hPa24.1 kmNE (50°)11.1 km/hOvercast
8:00 AM11.7 °C3.9 °C49 %1021.7 hPa45.1 kmNNE (30°)14.8 km/hPartly Cloudy
8:00 AM12 °C4 °C58 %1021.3 hPa48.3 kmNNE (30°)14.8 km/hMostly Cloudy
9:00 AM12 °C5 °C62 %1021.7 hPa48.3 kmNorth (10°)16.7 km/hMostly Cloudy
10:00 AM14 °C5 °C55 %1022 hPa48.3 kmNorth (10°)14.8 km/hMostly Cloudy
11:00 AM14 °C5 °C55 %1021.7 hPa48.3 kmNorth (10°)16.7 km/hMostly Cloudy
12:00 PM15 °C4 °C48 %1021.7 hPa48.3 kmNNE (20°)14.8 km/hScattered Clouds
1:00 PM16 °C3 °C42 %1021 hPa48.3 kmNorth (10°)13 km/hScattered Clouds
2:00 PM16.7 °C3.9 °C30 %1020.3 hPa45.1 kmNorth (10°)9.3 km/hPartly Cloudy
2:00 PM17 °C4 °C42 %1020.3 hPa48.3 kmNNE (20°)11.1 km/hMostly Cloudy
3:00 PM16 °C4 °C45 %1020.3 hPa48.3 kmNNE (30°)11.1 km/hMostly Cloudy
4:00 PM17 °C3 °C39 %1020.3 hPa48.3 kmESE (110°)7.4 km/hMostly Cloudy
5:00 PM17 °C3 °C39 %1020 hPa48.3 kmEast (100°)7.4 km/hMostly Cloudy
6:00 PM16 °C3 °C42 %1020.3 hPa48.3 kmEast (100°)7.4 km/hMostly Cloudy
7:00 PM15 °C3 °C45 %1020.7 hPa24.1 kmESE (110°)11.1 km/hMostly Cloudy
8:00 PM15 °C3 °C45 %1020.7 hPa24.1 kmENE (70°)13 km/hMostly Cloudy
9:00 PM14 °C4 °C51 %1021.7 hPa24.1 kmENE (60°)5.6 km/hMostly Cloudy
10:00 PM14 °C4 °C51 %1022 hPa24.1 kmNE (50°)16.7 km/hOvercast
11:00 PM14 °C5 °C55 %1022.4 hPa24.1 kmNE (50°)18.5 km/hOvercast
Hourly data recorded from CYUL, located 0 kilometers away from Montreal, Quebec







STORIES FROM OUR PARTNERS